• MPC Preparation (Info)

  • MPEC 2016-O133: 2014 GY53

    The following Minor Planet Electronic Circular may be linked-to from your own Web pages, but must not otherwise be redistributed electronically.

    A form allowing access to any MPEC is at the bottom of this page.


    Read MPEC 2016-O132 Read MPEC 2016-O134


    M.P.E.C. 2016-O133                               Issued 2016 July 17, 07:34 UT
    
         The Minor Planet Electronic Circulars contain information on unusual
             minor planets and routine data on comets.  They are published
        on behalf of Division F of the International Astronomical Union by the
              Minor Planet Center, Smithsonian Astrophysical Observatory,
                              Cambridge, MA 02138, U.S.A.
    
                 Prepared using the Tamkin Foundation Computer Network
    
                                  MPC@CFA.HARVARD.EDU
                URL https://www.minorplanetcenter.net/    ISSN 1523-6714
    
                                       2014 GY53
    
    Observations:
         K14G53Y  C2011 04 21.39073 13 51 05.452+05 07 10.38         21.0 iLEO133F51
         K14G53Y  C2011 04 21.40243 13 51 05.379+05 07 10.83         21.2 iLEO133F51
         K14G53Y  C2011 04 21.41501 13 51 05.302+05 07 11.33         21.3 rLEO133F51
         K14G53Y  C2011 04 21.42583 13 51 05.252+05 07 11.51         21.4 rLEO133F51
         K14G53Y  C2013 04 22.35954 14 10 00.939+03 49 50.65         21.1 iLEO133F51
         K14G53Y  C2013 04 22.37197 14 10 00.870+03 49 51.17         21.3 iLEO133F51
         K14G53Y  C2013 04 22.48710 14 10 00.179+03 49 55.11         21.5 rLEO133F51
         K14G53Y* C2014 04 05.43280 14 20 57.788+03 00 05.13         21.6 wLEO133F51
         K14G53Y  C2014 04 05.44505 14 20 57.715+03 00 05.63         21.7 wLEO133F51
         K14G53Y  C2014 04 05.45730 14 20 57.649+03 00 06.16         21.7 wLEO133F51
         K14G53Y  C2014 04 05.46956 14 20 57.591+03 00 06.63         21.7 wLEO133F51
         K14G53Y  C2014 05 05.40138 14 18 02.305+03 17 33.02         21.4 wLEO133F51
         K14G53Y  C2014 05 05.41435 14 18 02.196+03 17 33.39         21.4 wLEO133F51
         K14G53Y  C2014 05 05.42729 14 18 02.136+03 17 33.79         21.3 wLEO133F51
         K14G53Y  C2014 05 05.44022 14 18 02.048+03 17 34.16         21.6 wLEO133F51
         K14G53Y  C2014 05 25.38435 14 16 10.676+03 23 52.32         21.7 wLEO133F51
         K14G53Y  C2014 05 25.39739 14 16 10.620+03 23 52.32         21.7 wLEO133F51
         K14G53Y  C2014 05 25.41041 14 16 10.545+03 23 52.53         21.8 wLEO133F51
         K14G53Y  C2014 05 25.42352 14 16 10.472+03 23 52.67         21.8 wLEO133F51
         K14G53Y  C2014 05 31.42079 14 15 41.011+03 24 44.60         21.5 wLEO133F51
         K14G53Y  C2014 05 31.43339 14 15 40.959+03 24 44.65         21.8 wLEO133F51
         K14G53Y  C2014 05 31.44597 14 15 40.900+03 24 44.56         21.7 wLEO133F51
         K14G53Y  C2014 05 31.45851 14 15 40.832+03 24 44.44         21.8 wLEO133F51
         K14G53Y  C2014 07 02.27051 14 13 56.267+03 20 53.57         22.0 wLEO133F51
         K14G53Y  C2014 07 02.28342 14 13 56.235+03 20 53.33         22.1 wLEO133F51
         K14G53Y  C2014 07 02.29629 14 13 56.226+03 20 53.14         22.3 wLEO133F51
         K14G53Y  C2014 07 02.30911 14 13 56.202+03 20 52.77         21.9 wLEO133F51
         K14G53Y  C2015 02 16.56115 14 32 40.712+01 48 11.70         22.0 wLEO133F51
         K14G53Y  C2015 02 16.57456 14 32 40.698+01 48 12.38         21.8 wLEO133F51
         K14G53Y  C2015 02 16.58793 14 32 40.686+01 48 12.79         21.7 wLEO133F51
         K14G53Y  C2015 02 16.60131 14 32 40.683+01 48 13.35         21.8 wLEO133F51
         K14G53Y  C2015 03 22.50667 14 31 13.154+02 11 39.12         21.8 wLEO133F51
         K14G53Y  C2015 03 22.52030 14 31 13.099+02 11 39.75         21.7 wLEO133F51
         K14G53Y  C2015 03 22.53406 14 31 13.036+02 11 40.40         21.7 wLEO133F51
         K14G53Y  C2015 03 22.54778 14 31 12.963+02 11 40.95         21.7 wLEO133F51
         K14G53Y  C2015 04 23.49772 14 28 23.553+02 32 57.04         21.7 wLEO133F51
         K14G53Y  C2015 04 23.51198 14 28 23.471+02 32 57.39         21.7 wLEO133F51
         K14G53Y  C2015 04 23.52617 14 28 23.381+02 32 57.87         21.6 wLEO133F51
         K14G53Y  C2015 04 23.54043 14 28 23.291+02 32 58.32         21.8 wLEO133F51
         K14G53Y  C2015 04 24.53021 14 28 17.420+02 33 31.49         21.5 wLEO133F51
         K14G53Y  C2015 04 24.54439 14 28 17.328+02 33 32.12         21.7 wLEO133F51
         K14G53Y  C2015 04 24.55859 14 28 17.244+02 33 32.54         21.7 wLEO133F51
         K14G53Y  C2015 04 24.57281 14 28 17.169+02 33 32.99         21.5 wLEO133F51
         K14G53Y  C2015 05 15.43462 14 26 13.988+02 42 53.66         21.6 wLEO133F51
         K14G53Y  C2015 05 15.44670 14 26 13.939+02 42 54.25         21.6 wLEO133F51
         K14G53Y  C2015 05 15.45880 14 26 13.857+02 42 54.26         21.5 wLEO133F51
         K14G53Y  C2015 05 15.47100 14 26 13.796+02 42 54.60         21.6 wLEO133F51
         K14G53Y  C2015 05 18.43401 14 25 57.055+02 43 49.76         21.6 wLEO133F51
         K14G53Y  C2015 05 18.44630 14 25 57.000+02 43 50.08         21.8 wLEO133F51
         K14G53Y  C2015 05 18.45858 14 25 56.926+02 43 50.29         21.8 wLEO133F51
         K14G53Y  C2015 05 18.47090 14 25 56.846+02 43 50.44         21.6 wLEO133F51
    
    Observer details:
    F51 Pan-STARRS 1, Haleakala.  Observers B. Gibson, T. Goggia, N. Primak,
        A. Schultz, M. Willman.  Measurers K. Chambers, S. Chastel, Y.-T. Chen,
        L. Denneau, H. Flewelling, M. Holman, M. Huber, R. Jedicke, M. Lackner,
        E. Lilly, H.-W. Lin, E. Magnier, M. Micheli, M. Payne, P. Veres,
        R. Wainscoat, C. Waters, R. Weryk.  1.8-m Ritchey-Chretien + CCD.
    
    Orbital elements:
    2014 GY53
    Epoch 2016 July 31.0 TT = JDT 2457600.5                 MPC
    M  31.82812              (2000.0)            P               Q
    n   0.00393931     Peri.   22.91583     -0.93002406     -0.31500474
    a  39.7059583      Node   137.22013     +0.27897400     -0.94042671
    e   0.2980977      Incl.   16.18197     +0.23922531     -0.12794377
    P 250              H    6.6           G   0.15           U   1
    Residuals in seconds of arc
    110421 F51  0.1-  0.1-    140525 F51  0.0   0.1+    150322 F51  0.2-  0.2-
    110421 F51  0.1-  0.0     140525 F51  0.1-  0.1+    150423 F51  0.0   0.1+
    110421 F51  0.1-  0.0     140531 F51  0.1-  0.2+    150423 F51  0.1+  0.0
    110421 F51  0.2+  0.2-    140531 F51  0.0   0.2+    150423 F51  0.0   0.0
    130422 F51  0.1-  0.1-    140531 F51  0.0   0.0     150423 F51  0.0   0.0
    130422 F51  0.0   0.0     140531 F51  0.1-  0.2-    150424 F51  0.1+  0.1-
    130422 F51  0.2+  0.0     140702 F51  0.2+  0.1+    150424 F51  0.0   0.1+
    140405 F51  0.1-  0.0     140702 F51  0.0   0.1+    150424 F51  0.0   0.0
    140405 F51  0.1-  0.0     140702 F51  0.2+  0.2+    150424 F51  0.1+  0.0
    140405 F51  0.1-  0.0     140702 F51  0.2+  0.1+    150515 F51  0.2-  0.2-
    140405 F51  0.0   0.0     150216 F51  0.1+  0.1-    150515 F51  0.1+  0.1+
    140505 F51  0.3+  0.0     150216 F51  0.0   0.1+    150515 F51  0.1-  0.1-
    140505 F51  0.2-  0.0     150216 F51  0.0   0.0     150515 F51  0.1+  0.0
    140505 F51  0.1+  0.1+    150216 F51  0.1+  0.1+    150518 F51  0.2-  0.1-
    140505 F51  0.1-  0.1+    150322 F51  0.0   0.2-    150518 F51  0.0   0.0
    140525 F51  0.1-  0.1+    150322 F51  0.1+  0.2-    150518 F51  0.0   0.0
    140525 F51  0.1+  0.0     150322 F51  0.0   0.1-    150518 F51  0.2-  0.1-
    
    Ephemeris:
    2014 GY53                a,e,i = 39.71, 0.30, 16                 q = 27.870
    Date    TT    R. A. (2000) Decl.     Delta      r     Elong.  Phase     V
    2016 06 17    14 32 30.9 +02 09 01  30.4795 31.1041   127.2     1.5    21.7
    ...
    2016 07 02    14 31 46.9 +02 06 03  30.6950 31.1148   113.5     1.7    21.7
    ...
    2016 07 10    14 31 33.1 +02 03 16  30.8215 31.1205   106.2     1.8    21.7
    ...
    2016 07 16    14 31 27.5 +02 00 41  30.9199 31.1248   100.7     1.8    21.7
    2016 07 17    14 31 26.9 +02 00 13  30.9365 31.1255    99.8     1.8    21.7
    2016 07 18    14 31 26.5 +01 59 44  30.9531 31.1263    98.9     1.8    21.7
    ...
    2016 07 24    14 31 26.5 +01 56 36  31.0538 31.1305    93.4     1.9    21.8
    ...
    2016 08 01    14 31 33.1 +01 51 52  31.1888 31.1363    86.1     1.9    21.8
    ...
    2016 08 16    14 32 06.0 +01 41 30  31.4371 31.1470    72.5     1.8    21.8
    
    A. U. Tomatic                (C) Copyright 2016 MPC           M.P.E.C. 2016-O133
    

    Read MPEC 2016-O132 Read MPEC 2016-O134


    MPEC number:

    Enter an MPEC number in one of the following forms:

    • 1997-B01 (the full form)
    • J97B01 (the packed version of the full form)
    • B01 (the abbreviated form)